| time (UTC) | temp F | wind direction | speed knots | gust knots | rain 1hr in | rain 24hr in | rain mn in | humidity % | barometer mb |
| 20260503221004 | 49 | 33 | 0.9 | 1.7 | 0.00 | 0.01 | 0.00 | 87 | 1027.4 |
| 20260503220004 | 49 | 59 | 0.9 | 2.6 | 0.00 | 0.01 | 0.00 | 87 | 1027.3 |
| 20260503215004 | 49 | 23 | 0.9 | 3.5 | 0.00 | 0.01 | 0.00 | 87 | 1027.3 |
| 20260503214003 | 49 | 341 | 0.9 | 3.5 | 0.00 | 0.01 | 0.00 | 86 | 1027.3 |
| 20260503213025 | 49 | 25 | 0.9 | 2.6 | 0.00 | 0.01 | 0.00 | 86 | 1027.2 |
| 20260503212004 | 49 | 52 | 1.7 | 6.1 | 0.00 | 0.01 | 0.00 | 86 | 1027.3 |
| 20260503211024 | 49 | 269 | 0.9 | 6.1 | 0.00 | 0.01 | 0.00 | 86 | 1027.2 |
| 20260503210004 | 49 | 55 | 0.9 | 3.5 | 0.00 | 0.01 | 0.00 | 86 | 1027.2 |
| 20260503205003 | 49 | 41 | 1.7 | 6.1 | 0.00 | 0.01 | 0.00 | 86 | 1027.1 |
| 20260503204003 | 49 | 62 | 0.9 | 3.5 | 0.00 | 0.01 | 0.00 | 86 | 1027.1 |
| 20260503203004 | 49 | 94 | 0.9 | 2.6 | 0.00 | 0.01 | 0.00 | 85 | 1027.0 |
| 20260503202024 | 49 | 40 | 0.9 | 2.6 | 0.00 | 0.01 | 0.00 | 85 | 1027.1 |
| 20260503201003 | 49 | 40 | 0.9 | 2.6 | 0.00 | 0.01 | 0.00 | 86 | 1026.9 |
| 20260503200003 | 49 | 327 | 0.9 | 3.5 | 0.00 | 0.01 | 0.00 | 86 | 1027.0 |
| 20260503195004 | 49 | 348 | 0.9 | 3.5 | 0.00 | 0.01 | 0.00 | 86 | 1027.2 |
| 20260503194004 | 49 | 18 | 1.7 | 5.2 | 0.00 | 0.01 | 0.00 | 86 | 1027.0 |
| 20260503193004 | 49 | 36 | 1.7 | 3.5 | 0.00 | 0.01 | 0.00 | 86 | 1027.0 |
| 20260503192003 | 49 | 38 | 1.7 | 3.5 | 0.00 | 0.01 | 0.00 | 86 | 1026.9 |
| 20260503191025 | 48 | 38 | 1.7 | 3.5 | 0.00 | 0.01 | 0.00 | 86 | 1026.9 |
| 20260503190025 | 48 | 38 | 1.7 | 4.3 | 0.00 | 0.01 | 0.00 | 86 | 1026.9 |
| 20260503185004 | 49 | 47 | 1.7 | 4.3 | 0.00 | 0.01 | 0.00 | 86 | 1026.9 |
| 20260503184003 | 49 | 109 | 0.9 | 2.6 | 0.00 | 0.01 | 0.00 | 86 | 1026.9 |
| 20260503183004 | 49 | 72 | 0.9 | 3.5 | 0.00 | 0.01 | 0.00 | 86 | 1026.8 |
| 20260503182005 | 49 | 19 | 0.0 | 1.7 | 0.00 | 0.01 | 0.00 | 85 | 1026.8 |
| 20260503181004 | 49 | 19 | 0.9 | 2.6 | 0.00 | 0.01 | 0.00 | 85 | 1026.8 |
| 20260503180004 | 49 | 19 | 0.9 | 2.6 | 0.00 | 0.01 | 0.00 | 86 | 1026.9 |
| 20260503175004 | 50 | 19 | 1.7 | 3.5 | 0.00 | 0.01 | 0.00 | 86 | 1026.9 |
| 20260503174004 | 49 | 19 | 1.7 | 3.5 | 0.00 | 0.01 | 0.00 | 86 | 1026.9 |
| 20260503173004 | 49 | 19 | 1.7 | 3.5 | 0.00 | 0.01 | 0.00 | 86 | 1026.8 |
| 20260503172004 | 49 | 19 | 2.6 | 3.5 | 0.00 | 0.01 | 0.00 | 86 | 1026.9 |
| 20260503171004 | 49 | 19 | 1.7 | 2.6 | 0.00 | 0.01 | 0.00 | 85 | 1026.9 |
| 20260503151004 | 52 | 20 | 0.9 | 2.6 | 0.00 | 0.01 | 0.01 | 81 | 1026.4 |
| 20260503131004 | 52 | 69 | 2.6 | 4.3 | 0.00 | 0.01 | 0.01 | 85 | 1026.3 |
| 20260503081003 | 67 | 206 | 1.7 | 3.5 | 0.00 | 0.01 | 0.01 | 58 | 1024.4 |
| 20260503072004 | 66 | 180 | 2.6 | 6.1 | 0.00 | 0.01 | 0.01 | 58 | 1024.4 |
| 20260503071004 | 66 | 133 | 1.7 | 5.2 | 0.00 | 0.01 | 0.01 | 59 | 1024.4 |
| 20260503055004 | 65 | 93 | 2.6 | 7.0 | 0.00 | 0.01 | 0.01 | 64 | 1024.8 |
| 20260503054004 | 64 | 38 | 2.6 | 7.0 | 0.00 | 0.01 | 0.01 | 65 | 1024.7 |
| 20260503053004 | 64 | 37 | 2.6 | 7.0 | 0.00 | 0.01 | 0.01 | 65 | 1024.8 |
| 20260503052003 | 64 | 63 | 2.6 | 7.0 | 0.00 | 0.01 | 0.01 | 66 | 1024.9 |
| 20260503051004 | 64 | 26 | 2.6 | 7.8 | 0.00 | 0.01 | 0.01 | 67 | 1025.1 |
| 20260503050004 | 63 | 75 | 3.5 | 7.8 | 0.00 | 0.01 | 0.01 | 68 | 1025.3 |
| 20260503045003 | 63 | 73 | 3.5 | 9.6 | 0.00 | 0.01 | 0.01 | 68 | 1025.4 |
| 20260503044003 | 63 | 135 | 1.7 | 9.6 | 0.00 | 0.01 | 0.01 | 71 | 1025.5 |
| 20260503043025 | 62 | 348 | 1.7 | 7.0 | 0.00 | 0.01 | 0.01 | 72 | 1025.6 |
| 20260503042004 | 61 | 39 | 2.6 | 7.8 | 0.00 | 0.01 | 0.01 | 73 | 1025.8 |
| 20260503041004 | 60 | 74 | 2.6 | 9.6 | 0.00 | 0.01 | 0.01 | 77 | 1026.0 |
| 20260503040004 | 59 | 63 | 1.7 | 9.6 | 0.00 | 0.01 | 0.01 | 80 | 1026.0 |
| 20260503035004 | 58 | 50 | 3.5 | 9.6 | 0.00 | 0.01 | 0.01 | 84 | 1026.2 |
| 20260503034004 | 56 | 50 | 2.6 | 11.3 | 0.00 | 0.01 | 0.01 | 87 | 1026.3 |
| 20260503033004 | 55 | 187 | 1.7 | 5.2 | 0.00 | 0.01 | 0.01 | 89 | 1026.6 |
| 20260503032004 | 54 | 84 | 2.6 | 7.8 | 0.00 | 0.01 | 0.01 | 90 | 1026.8 |
| 20260503031004 | 54 | 122 | 1.7 | 7.0 | 0.00 | 0.01 | 0.01 | 91 | 1026.9 |
| 20260503030004 | 53 | 71 | 1.7 | 7.8 | 0.00 | 0.01 | 0.01 | 91 | 1026.9 |
| 20260503025003 | 53 | 54 | 2.6 | 7.0 | 0.00 | 0.01 | 0.01 | 92 | 1027.1 |
| 20260503024003 | 52 | 131 | 1.7 | 6.1 | 0.00 | 0.01 | 0.01 | 92 | 1027.2 |
| 20260503023004 | 51 | 138 | 1.7 | 8.7 | 0.00 | 0.01 | 0.01 | 92 | 1027.2 |
| 20260503022003 | 51 | 167 | 1.7 | 7.8 | 0.01 | 0.01 | 0.01 | 92 | 1027.3 |
| 20260503021003 | 50 | 215 | 1.7 | 4.3 | 0.01 | 0.01 | 0.01 | 92 | 1027.3 |
| 20260503020004 | 50 | 148 | 1.7 | 7.0 | 0.01 | 0.01 | 0.01 | 93 | 1027.4 |
| 20260503015025 | 49 | 101 | 1.7 | 8.7 | 0.01 | 0.01 | 0.01 | 93 | 1027.3 |
| 20260503014003 | 49 | 181 | 1.7 | 6.1 | 0.01 | 0.01 | 0.01 | 92 | 1027.2 |
| 20260503013003 | 49 | 95 | 1.7 | 8.7 | 0.01 | 0.01 | 0.01 | 93 | 1027.2 |
| 20260503012003 | 48 | 183 | 1.7 | 3.5 | 0.00 | 0.01 | 0.00 | 93 | 1027.2 |
| 20260503011024 | 48 | 181 | 1.7 | 6.1 | 0.00 | 0.01 | 0.00 | 93 | 1027.4 |
| 20260503010025 | 47 | 9 | 1.7 | 6.1 | 0.00 | 0.01 | 0.00 | 93 | 1027.4 |
| 20260503005003 | 46 | 170 | 0.9 | 4.3 | 0.00 | 0.01 | 0.00 | 93 | 1027.3 |
| 20260503004003 | 45 | 44 | 1.7 | 4.3 | 0.00 | 0.01 | 0.00 | 93 | 1027.4 |
| 20260503003003 | 45 | 216 | 0.9 | 3.5 | 0.00 | 0.01 | 0.00 | 92 | 1027.5 |
| 20260503002003 | 44 | 229 | 1.7 | 7.0 | 0.00 | 0.01 | 0.00 | 92 | 1027.5 |
| 20260503001003 | 44 | 70 | 1.7 | 8.7 | 0.00 | 0.01 | 0.00 | 93 | 1027.3 |
| 20260503000024 | 43 | 128 | 0.9 | 4.3 | 0.00 | 0.01 | 0.00 | 92 | 1027.0 |
| 20260502235003 | 42 | 94 | 0.9 | 4.3 | 0.00 | 0.01 | 0.00 | 92 | 1026.8 |
| 20260502234004 | 42 | 88 | 0.9 | 5.2 | 0.00 | 0.01 | 0.00 | 92 | 1026.6 |
| 20260502233003 | 42 | 76 | 0.0 | 1.7 | 0.00 | 0.01 | 0.00 | 92 | 1026.5 |
| 20260502232003 | 42 | 77 | 0.9 | 2.6 | 0.00 | 0.01 | 0.00 | 92 | 1026.3 |
| 20260502231024 | 42 | 109 | 0.9 | 2.6 | 0.00 | 0.01 | 0.00 | 92 | 1026.2 |
| 20260502230003 | 42 | 186 | 0.0 | 1.7 | 0.00 | 0.01 | 0.00 | 92 | 1026.0 |
| 20260502225003 | 42 | 186 | 0.0 | 0.9 | 0.00 | 0.01 | 0.00 | 92 | 1026.0 |
| 20260502224024 | 42 | 186 | 0.0 | 0.9 | 0.00 | 0.01 | 0.00 | 91 | 1026.0 |
| 20260502223004 | 42 | 186 | 0.0 | 0.9 | 0.00 | 0.01 | 0.00 | 91 | 1026.0 |
| 20260502222025 | 42 | 186 | 0.0 | 0.9 | 0.00 | 0.01 | 0.00 | 91 | 1025.9 |
| 20260502221025 | 42 | 186 | 0.0 | 0.9 | 0.00 | 0.01 | 0.00 | 91 | 1025.9 |